When you browse on this site, cookies collect data to enhance your experience and personalize the content and advertising you see.
Visit our Privacy Policy to learn more. By continuing to use the site, you agree to this use of cookies and data.
  • în România
  • Lista ţărilor
  • Pe 7 zile
  • Temperatura apei
  • Meteo pe hartă
  • Widget-uri
  • user-avatar
    Intrare

    Meteo pe oră la Sławno

    Astăzi, 20 Septembrie, Vineri

    Timp Temperatura Precipitaţii Vânt Presiune Umiditate
    00:00 +9°C° 0 mm 3 m/s 765 mmHg 64%
    01:00 +9°C° 0 mm 3 m/s 765 mmHg 65%
    02:00 +9°C° 0 mm 3 m/s 765 mmHg 67%
    03:00 +8°C° 0 mm 3 m/s 765 mmHg 68%
    04:00 +8°C° 0 mm 3 m/s 765 mmHg 69%
    05:00 +9°C° 0 mm 2 m/s 765 mmHg 68%
    06:00 +9°C° 0 mm 2 m/s 765 mmHg 68%
    07:00 +9°C° 0 mm 2 m/s 765 mmHg 67%
    08:00 +11°C° 0 mm 3 m/s 765 mmHg 63%
    09:00 +12°C° 0 mm 3 m/s 765 mmHg 59%
    10:00 +14°C° 0 mm 4 m/s 765 mmHg 55%
    11:00 +14°C° 0.1 mm 4 m/s 765 mmHg 60%
    12:00 +14°C° 0.1 mm 5 m/s 765 mmHg 65%
    13:00 +13°C° 0.1 mm 6 m/s 764 mmHg 70%
    14:00 +13°C° 0.1 mm 6 m/s 764 mmHg 75%
    15:00 +13°C° 0.1 mm 6 m/s 764 mmHg 79%
    16:00 +13°C° 0.1 mm 6 m/s 763 mmHg 84%
    17:00 +13°C° 0.2 mm 6 m/s 763 mmHg 86%
    18:00 +13°C° 0.2 mm 6 m/s 763 mmHg 88%
    19:00 +13°C° 0.2 mm 5 m/s 763 mmHg 90%
    20:00 +13°C° 0.1 mm 5 m/s 763 mmHg 91%
    21:00 +13°C° 0.1 mm 5 m/s 762 mmHg 91%
    22:00 +13°C° 0.1 mm 5 m/s 762 mmHg 92%
    23:00 +13°C° 0 mm 6 m/s 762 mmHg 92%

    Mâine, 21 Septembrie, Sâmbătă

    Timp Temperatura Precipitaţii Vânt Presiune Umiditate
    00:00 +13°C° 0 mm 6 m/s 762 mmHg 92%
    01:00 +14°C° 0 mm 6 m/s 762 mmHg 92%
    02:00 +13°C° 0 mm 6 m/s 762 mmHg 91%
    03:00 +13°C° 0 mm 6 m/s 762 mmHg 91%
    04:00 +13°C° 0 mm 5 m/s 762 mmHg 91%
    05:00 +13°C° 0 mm 5 m/s 762 mmHg 90%
    06:00 +13°C° 0 mm 5 m/s 762 mmHg 89%
    07:00 +13°C° 0 mm 5 m/s 762 mmHg 88%
    08:00 +14°C° 0 mm 5 m/s 762 mmHg 85%
    09:00 +14°C° 0 mm 5 m/s 762 mmHg 82%
    10:00 +15°C° 0 mm 5 m/s 762 mmHg 79%
    11:00 +15°C° 0 mm 5 m/s 762 mmHg 78%
    12:00 +15°C° 0 mm 5 m/s 762 mmHg 77%
    13:00 +15°C° 0 mm 5 m/s 762 mmHg 76%
    14:00 +15°C° 0 mm 5 m/s 762 mmHg 76%
    15:00 +15°C° 0 mm 4 m/s 762 mmHg 76%
    16:00 +15°C° 0 mm 4 m/s 761 mmHg 77%
    17:00 +14°C° 0 mm 4 m/s 761 mmHg 82%
    18:00 +13°C° 0 mm 3 m/s 761 mmHg 87%
    19:00 +13°C° 0 mm 2 m/s 761 mmHg 92%
    20:00 +13°C° 0 mm 2 m/s 761 mmHg 93%
    21:00 +13°C° 0 mm 2 m/s 761 mmHg 93%
    22:00 +11°C° 0 mm 3 m/s 761 mmHg 94%
    23:00 +11°C° 0 mm 3 m/s 761 mmHg 94%

    Poimâine, 22 Septembrie, Duminică

    Timp Temperatura Precipitaţii Vânt Presiune Umiditate
    00:00 +11°C° 0 mm 3 m/s 761 mmHg 93%
    01:00 +11°C° 0 mm 3 m/s 761 mmHg 93%
    02:00 +11°C° 0 mm 3 m/s 761 mmHg 93%
    03:00 +11°C° 0 mm 3 m/s 761 mmHg 93%
    04:00 +11°C° 0 mm 3 m/s 760 mmHg 93%
    05:00 +11°C° 0 mm 3 m/s 760 mmHg 91%
    06:00 +11°C° 0 mm 3 m/s 760 mmHg 89%
    07:00 +13°C° 0 mm 2 m/s 760 mmHg 87%
    08:00 +15°C° 0 mm 2 m/s 760 mmHg 80%
    09:00 +17°C° 0 mm 2 m/s 760 mmHg 73%
    10:00 +19°C° 0 mm 2 m/s 760 mmHg 65%
    11:00 +19°C° 0 mm 2 m/s 760 mmHg 62%
    12:00 +20°C° 0 mm 2 m/s 760 mmHg 58%
    13:00 +21°C° 0 mm 2 m/s 760 mmHg 54%
    14:00 +21°C° 0 mm 2 m/s 759 mmHg 56%
    15:00 +21°C° 0 mm 2 m/s 759 mmHg 59%
    16:00 +20°C° 0 mm 2 m/s 758 mmHg 61%
    17:00 +19°C° 0 mm 2 m/s 758 mmHg 68%
    18:00 +17°C° 0 mm 2 m/s 758 mmHg 74%
    19:00 +14°C° 0 mm 3 m/s 758 mmHg 81%
    20:00 +14°C° 0 mm 3 m/s 758 mmHg 81%
    21:00 +13°C° 0 mm 3 m/s 758 mmHg 82%
    22:00 +13°C° 0 mm 3 m/s 758 mmHg 83%
    23:00 +13°C° 0 mm 3 m/s 758 mmHg 83%

    23 Septembrie, Luni

    Timp Temperatura Precipitaţii Vânt Presiune Umiditate
    00:00 +12°C° 0 mm 3 m/s 757 mmHg 83%
    01:00 +12°C° 0 mm 3 m/s 757 mmHg 83%
    02:00 +12°C° 0 mm 3 m/s 757 mmHg 82%
    03:00 +12°C° 0 mm 3 m/s 757 mmHg 82%
    04:00 +11°C° 0 mm 3 m/s 756 mmHg 81%
    05:00 +12°C° 0 mm 3 m/s 756 mmHg 79%
    06:00 +12°C° 0 mm 3 m/s 756 mmHg 78%
    07:00 +12°C° 0 mm 3 m/s 756 mmHg 76%
    08:00 +14°C° 0 mm 3 m/s 756 mmHg 69%
    09:00 +17°C° 0 mm 3 m/s 756 mmHg 63%
    10:00 +19°C° 0 mm 3 m/s 756 mmHg 57%
    11:00 +20°C° 0 mm 3 m/s 756 mmHg 54%
    12:00 +21°C° 0 mm 3 m/s 755 mmHg 51%
    13:00 +22°C° 0 mm 3 m/s 755 mmHg 48%
    14:00 +22°C° 0 mm 3 m/s 755 mmHg 51%
    15:00 +22°C° 0 mm 3 m/s 755 mmHg 53%
    16:00 +21°C° 0 mm 3 m/s 754 mmHg 55%
    17:00 +20°C° 0 mm 3 m/s 755 mmHg 62%
    18:00 +18°C° 0 mm 3 m/s 755 mmHg 69%
    19:00 +16°C° 0 mm 3 m/s 755 mmHg 76%
    20:00 +14°C° 0 mm 3 m/s 755 mmHg 79%
    21:00 +14°C° 0 mm 3 m/s 755 mmHg 83%
    22:00 +13°C° 0 mm 3 m/s 755 mmHg 86%
    23:00 +14°C° 0 mm 2 m/s 755 mmHg 86%

    24 Septembrie, Marţi

    Timp Temperatura Precipitaţii Vânt Presiune Umiditate
    00:00 +14°C° 0 mm 2 m/s 756 mmHg 86%
    01:00 +14°C° 0 mm 2 m/s 756 mmHg 86%
    02:00 +13°C° 0 mm 2 m/s 756 mmHg 86%
    03:00 +13°C° 0 mm 2 m/s 756 mmHg 86%
    04:00 +13°C° 0 mm 2 m/s 756 mmHg 86%
    05:00 +13°C° 0 mm 2 m/s 756 mmHg 85%
    06:00 +13°C° 0 mm 2 m/s 756 mmHg 84%
    07:00 +14°C° 0 mm 2 m/s 756 mmHg 83%
    08:00 +15°C° 0 mm 2 m/s 757 mmHg 77%
    09:00 +17°C° 0 mm 2 m/s 757 mmHg 70%
    10:00 +19°C° 0 mm 2 m/s 757 mmHg 63%
    11:00 +20°C° 0 mm 2 m/s 757 mmHg 60%
    12:00 +21°C° 0 mm 2 m/s 757 mmHg 56%
    13:00 +21°C° 0 mm 2 m/s 757 mmHg 53%
    14:00 +21°C° 0 mm 2 m/s 757 mmHg 56%
    15:00 +20°C° 0 mm 2 m/s 757 mmHg 59%
    16:00 +20°C° 0 mm 3 m/s 757 mmHg 62%
    17:00 +19°C° 0 mm 3 m/s 757 mmHg 67%
    18:00 +18°C° 0 mm 3 m/s 756 mmHg 72%
    19:00 +16°C° 0 mm 3 m/s 756 mmHg 77%
    20:00 +16°C° 0 mm 3 m/s 756 mmHg 77%
    21:00 +17°C° 0 mm 3 m/s 756 mmHg 76%
    22:00 +17°C° 0 mm 3 m/s 756 mmHg 76%
    23:00 +16°C° 0 mm 3 m/s 756 mmHg 76%

    25 Septembrie, Miercuri

    Timp Temperatura Precipitaţii Vânt Presiune Umiditate
    00:00 +16°C° 0 mm 3 m/s 756 mmHg 77%
    01:00 +16°C° 0 mm 3 m/s 755 mmHg 78%
    02:00 +14°C° 0 mm 3 m/s 755 mmHg 80%
    03:00 +14°C° 0 mm 3 m/s 754 mmHg 81%
    04:00 +14°C° 0 mm 3 m/s 754 mmHg 83%
    05:00 +14°C° 0 mm 3 m/s 754 mmHg 82%
    06:00 +14°C° 0 mm 3 m/s 754 mmHg 82%
    07:00 +14°C° 0 mm 3 m/s 753 mmHg 82%
    08:00 +16°C° 0.2 mm 3 m/s 753 mmHg 79%
    09:00 +17°C° 0.2 mm 3 m/s 753 mmHg 77%
    10:00 +18°C° 0.2 mm 3 m/s 753 mmHg 74%
    11:00 +18°C° 0.7 mm 2 m/s 753 mmHg 74%
    12:00 +18°C° 0.7 mm 2 m/s 752 mmHg 74%
    13:00 +19°C° 0.7 mm 2 m/s 752 mmHg 74%
    14:00 +18°C° 0.7 mm 2 m/s 752 mmHg 80%
    15:00 +17°C° 0.7 mm 2 m/s 752 mmHg 85%
    16:00 +16°C° 0.7 mm 2 m/s 751 mmHg 91%
    17:00 +16°C° 0.4 mm 2 m/s 751 mmHg 92%
    18:00 +16°C° 0.4 mm 2 m/s 751 mmHg 92%
    19:00 +15°C° 0.4 mm 2 m/s 751 mmHg 93%
    20:00 +15°C° 0.4 mm 2 m/s 751 mmHg 92%
    21:00 +15°C° 0.4 mm 1 m/s 750 mmHg 92%
    22:00 +15°C° 0.4 mm 1 m/s 750 mmHg 92%
    23:00 +15°C° 0.1 mm 1 m/s 750 mmHg 92%
    Arată mai mult